• In Uzbekistan
  • List of Countries
  • For 7 days
  • Water Temperature
  • Satellite Maps
  • Weather Map
  • Weather Widgets
  • user-avatar
    Login

    Hourly Weather Banat

    Today, 18 October, Wednesday

    Time Temperature Precipitation Wind Pressure Humidity
    00:00 +24°C° 0 mm 1 mps 735 mmHg 50%
    01:00 +24°C° 0 mm 1 mps 735 mmHg 52%
    02:00 +21°C° 0 mm 0 mps 734 mmHg 54%
    03:00 +21°C° 0 mm 0 mps 735 mmHg 55%
    04:00 +22°C° 0 mm 1 mps 735 mmHg 56%
    05:00 +22°C° 0 mm 1 mps 736 mmHg 56%
    06:00 +23°C° 0 mm 1 mps 736 mmHg 54%
    07:00 +25°C° 0 mm 1 mps 737 mmHg 51%
    08:00 +26°C° 0 mm 1 mps 737 mmHg 49%
    09:00 +28°C° 0 mm 1 mps 737 mmHg 42%
    10:00 +31°C° 0 mm 1 mps 737 mmHg 36%
    11:00 +33°C° 0 mm 1 mps 737 mmHg 29%
    12:00 +34°C° 0 mm 1 mps 736 mmHg 26%
    13:00 +35°C° 0 mm 1 mps 736 mmHg 24%
    14:00 +36°C° 0 mm 1 mps 735 mmHg 21%
    15:00 +34°C° 0 mm 1 mps 735 mmHg 24%
    16:00 +32°C° 0 mm 1 mps 735 mmHg 27%
    17:00 +31°C° 0 mm 1 mps 735 mmHg 30%
    18:00 +30°C° 0 mm 1 mps 735 mmHg 32%
    19:00 +29°C° 0 mm 1 mps 735 mmHg 34%
    20:00 +28°C° 0 mm 1 mps 736 mmHg 35%
    21:00 +27°C° 0 mm 1 mps 736 mmHg 38%
    22:00 +26°C° 0 mm 1 mps 736 mmHg 41%
    23:00 +26°C° 0 mm 1 mps 736 mmHg 44%

    Tomorrow, 19 October, Thursday

    Time Temperature Precipitation Wind Pressure Humidity
    00:00 +25°C° 0 mm 1 mps 736 mmHg 47%
    01:00 +25°C° 0 mm 1 mps 735 mmHg 49%
    02:00 +24°C° 0 mm 1 mps 735 mmHg 52%
    03:00 +24°C° 0 mm 1 mps 735 mmHg 54%
    04:00 +23°C° 0 mm 1 mps 735 mmHg 56%
    05:00 +23°C° 0 mm 1 mps 735 mmHg 57%
    06:00 +24°C° 0 mm 1 mps 736 mmHg 55%
    07:00 +26°C° 0 mm 1 mps 737 mmHg 52%
    08:00 +27°C° 0 mm 1 mps 737 mmHg 50%
    09:00 +29°C° 0 mm 1 mps 737 mmHg 44%
    10:00 +32°C° 0 mm 1 mps 737 mmHg 38%
    11:00 +32°C° 0 mm 0 mps 737 mmHg 31%
    12:00 +35°C° 0 mm 1 mps 736 mmHg 29%
    13:00 +35°C° 0 mm 1 mps 735 mmHg 26%
    14:00 +36°C° 0 mm 1 mps 735 mmHg 24%
    15:00 +34°C° 0 mm 1 mps 734 mmHg 27%
    16:00 +33°C° 0 mm 1 mps 734 mmHg 30%
    17:00 +31°C° 0 mm 1 mps 734 mmHg 33%
    18:00 +30°C° 0 mm 1 mps 734 mmHg 34%
    19:00 +29°C° 0 mm 1 mps 735 mmHg 34%
    20:00 +28°C° 0 mm 1 mps 735 mmHg 35%
    21:00 +28°C° 0 mm 1 mps 735 mmHg 36%
    22:00 +27°C° 0 mm 1 mps 735 mmHg 38%
    23:00 +25°C° 0 mm 0 mps 735 mmHg 39%

    Day after tomorrow, 20 October, Friday

    Time Temperature Precipitation Wind Pressure Humidity
    00:00 +26°C° 0 mm 1 mps 735 mmHg 41%
    01:00 +26°C° 0 mm 1 mps 735 mmHg 42%
    02:00 +25°C° 0 mm 1 mps 735 mmHg 44%
    03:00 +25°C° 0 mm 1 mps 735 mmHg 45%
    04:00 +24°C° 0 mm 1 mps 735 mmHg 47%
    05:00 +24°C° 0 mm 1 mps 735 mmHg 48%
    06:00 +25°C° 0 mm 1 mps 735 mmHg 47%
    07:00 +26°C° 0 mm 1 mps 736 mmHg 45%
    08:00 +26°C° 0 mm 0 mps 737 mmHg 44%
    09:00 +28°C° 0 mm 0 mps 737 mmHg 38%
    10:00 +30°C° 0 mm 0 mps 737 mmHg 33%
    11:00 +33°C° 0 mm 0 mps 737 mmHg 28%
    12:00 +35°C° 0 mm 1 mps 736 mmHg 25%
    13:00 +36°C° 0 mm 1 mps 735 mmHg 23%
    14:00 +37°C° 0 mm 2 mps 734 mmHg 21%
    15:00 +36°C° 0 mm 2 mps 734 mmHg 23%
    16:00 +33°C° 0 mm 1 mps 734 mmHg 26%
    17:00 +31°C° 0 mm 1 mps 734 mmHg 28%
    18:00 +30°C° 0 mm 1 mps 734 mmHg 28%
    19:00 +29°C° 0 mm 1 mps 734 mmHg 28%
    20:00 +28°C° 0 mm 1 mps 735 mmHg 28%
    21:00 +27°C° 0 mm 1 mps 735 mmHg 29%
    22:00 +27°C° 0 mm 1 mps 735 mmHg 30%
    23:00 +26°C° 0 mm 1 mps 735 mmHg 30%

    21 October, Saturday

    Time Temperature Precipitation Wind Pressure Humidity
    00:00 +26°C° 0 mm 1 mps 734 mmHg 31%
    01:00 +25°C° 0 mm 1 mps 734 mmHg 32%
    02:00 +24°C° 0 mm 1 mps 734 mmHg 32%
    03:00 +24°C° 0 mm 1 mps 734 mmHg 34%
    04:00 +23°C° 0 mm 1 mps 734 mmHg 36%
    05:00 +23°C° 0 mm 1 mps 734 mmHg 37%
    06:00 +24°C° 0 mm 1 mps 734 mmHg 37%
    07:00 +25°C° 0 mm 1 mps 735 mmHg 37%
    08:00 +26°C° 0 mm 1 mps 735 mmHg 38%
    09:00 +29°C° 0 mm 1 mps 735 mmHg 33%
    10:00 +31°C° 0 mm 1 mps 735 mmHg 29%
    11:00 +33°C° 0 mm 1 mps 735 mmHg 25%
    12:00 +35°C° 0 mm 2 mps 734 mmHg 22%
    13:00 +36°C° 0 mm 3 mps 733 mmHg 19%
    14:00 +37°C° 0 mm 4 mps 733 mmHg 16%
    15:00 +36°C° 0 mm 3 mps 733 mmHg 18%
    16:00 +34°C° 0 mm 2 mps 732 mmHg 20%
    17:00 +31°C° 0 mm 1 mps 732 mmHg 23%
    18:00 +30°C° 0 mm 1 mps 733 mmHg 22%
    19:00 +29°C° 0 mm 2 mps 733 mmHg 22%
    20:00 +28°C° 0 mm 2 mps 733 mmHg 22%
    21:00 +27°C° 0 mm 2 mps 733 mmHg 22%
    22:00 +26°C° 0 mm 1 mps 733 mmHg 23%
    23:00 +25°C° 0 mm 1 mps 733 mmHg 24%

    22 October, Sunday

    Time Temperature Precipitation Wind Pressure Humidity
    00:00 +25°C° 0 mm 1 mps 733 mmHg 26%
    01:00 +24°C° 0 mm 1 mps 733 mmHg 27%
    02:00 +24°C° 0 mm 1 mps 733 mmHg 28%
    03:00 +23°C° 0 mm 1 mps 733 mmHg 30%
    04:00 +23°C° 0 mm 1 mps 733 mmHg 32%
    05:00 +22°C° 0 mm 1 mps 733 mmHg 33%
    06:00 +23°C° 0 mm 1 mps 734 mmHg 34%
    07:00 +25°C° 0 mm 1 mps 734 mmHg 34%
    08:00 +26°C° 0 mm 1 mps 735 mmHg 34%
    09:00 +28°C° 0 mm 1 mps 735 mmHg 30%
    10:00 +31°C° 0 mm 1 mps 735 mmHg 25%
    11:00 +33°C° 0 mm 1 mps 735 mmHg 21%
    12:00 +35°C° 0 mm 2 mps 734 mmHg 19%
    13:00 +36°C° 0 mm 2 mps 734 mmHg 16%
    14:00 +37°C° 0 mm 3 mps 733 mmHg 14%
    15:00 +35°C° 0 mm 3 mps 733 mmHg 17%
    16:00 +32°C° 0 mm 2 mps 733 mmHg 20%
    17:00 +31°C° 0 mm 1 mps 733 mmHg 22%
    18:00 +30°C° 0 mm 1 mps 733 mmHg 22%
    19:00 +29°C° 0 mm 1 mps 733 mmHg 21%
    20:00 +27°C° 0 mm 1 mps 734 mmHg 21%
    21:00 +27°C° 0 mm 1 mps 734 mmHg 22%
    22:00 +26°C° 0 mm 1 mps 734 mmHg 23%
    23:00 +25°C° 0 mm 1 mps 734 mmHg 24%

    23 October, Monday

    Time Temperature Precipitation Wind Pressure Humidity
    00:00 +25°C° 0 mm 1 mps 734 mmHg 25%
    01:00 +24°C° 0 mm 1 mps 734 mmHg 26%
    02:00 +24°C° 0 mm 1 mps 733 mmHg 27%
    03:00 +23°C° 0 mm 1 mps 734 mmHg 28%
    04:00 +23°C° 0 mm 1 mps 734 mmHg 29%
    05:00 +23°C° 0 mm 1 mps 734 mmHg 29%
    06:00 +24°C° 0 mm 1 mps 735 mmHg 30%
    07:00 +25°C° 0 mm 1 mps 735 mmHg 31%
    08:00 +26°C° 0 mm 2 mps 736 mmHg 32%
    09:00 +28°C° 0 mm 2 mps 736 mmHg 28%
    10:00 +30°C° 0 mm 2 mps 736 mmHg 25%
    11:00 +33°C° 0 mm 1 mps 736 mmHg 21%
    12:00 +34°C° 0 mm 1 mps 735 mmHg 19%
    13:00 +35°C° 0 mm 1 mps 735 mmHg 18%
    14:00 +36°C° 0 mm 1 mps 734 mmHg 16%
    15:00 +34°C° 0 mm 1 mps 734 mmHg 20%
    16:00 +32°C° 0 mm 1 mps 734 mmHg 23%
    17:00 +30°C° 0 mm 1 mps 734 mmHg 26%
    18:00 +29°C° 0 mm 1 mps 734 mmHg 28%
    19:00 +28°C° 0 mm 2 mps 735 mmHg 30%
    20:00 +27°C° 0 mm 2 mps 735 mmHg 33%
    21:00 +26°C° 0 mm 2 mps 735 mmHg 34%
    22:00 +25°C° 0 mm 1 mps 735 mmHg 36%
    23:00 +24°C° 0 mm 1 mps 735 mmHg 38%
    Show more